Weather History for KSBS - January, 2013

Change the Weather History Date:

Wednesday, January 2, 2013

  Actual Average Record
Temperature  
Mean Temperature 8 °F -  
Max Temperature 21 °F 21 °F 50 °F (1922)
Min Temperature -4 °F -4 °F -39 °F (1979)
Degree Days  
Heating Degree Days 56    
Moisture  
Dew Point 3 °F    
Average Humidity 79    
Maximum Humidity 88    
Minimum Humidity 56    
Precipitation  
Precipitation 0.00 in - - ()
Sea Level Pressure  
Sea Level Pressure 30.22 in    
Wind  
Wind Speed 0 mph (SSW)    
Max Wind Speed 4 mph    
Max Gust Speed -    
Visibility 5 miles    
Events      
Averages and records for this station are not official NWS values.
T = Trace of Precipitation, MM = Missing Value Source: NWS Daily Summary

Daily Weather History Graph

Daily Weather History Graph

Search for Another Location

Airport or City:

Trip Planner

Search our weather history database for the weather conditions in past years. The results will help you decide how hot, cold, wet, or windy it might be!

Date:

Astronomy

Jan. 02, 2013 Rise Set
Actual Time 7:31 AM MST 4:52 PM MST
Civil Twilight 7:00 AM MST 5:23 PM MST
Nautical Twilight 6:26 AM MST 5:57 PM MST
Astronomical Twilight 5:53 AM MST 6:30 PM MST
Moon 10:29 PM MST (1/2) 10:12 AM MST (1/2)
Length of Visible Light 10h 22m
Length of Day
9h 21m
Waning Gibbous, 74% of the Moon is Illuminated
Jan 2
Waning Gibbous
Jan 4
Last Quarter
Jan 11
New
Jan 18
First Quarter
Jan 26
Full

Hourly Weather History & Observations

Time (MST) Temp. Windchill Dew Point Humidity Pressure Visibility Wind Dir Wind Speed Gust Speed Precip Events Conditions
12:15 AM 6.1 °F - 2.5 °F 85% 30.19 in 2.5 mi Calm Calm - N/A   Overcast
12:35 AM 5.5 °F - 2.3 °F 86% 30.19 in 3.0 mi Calm Calm - N/A   Overcast
12:55 AM 5.2 °F - 1.8 °F 86% 30.19 in 2.5 mi Calm Calm - N/A   Overcast
1:15 AM 5.7 °F - 1.9 °F 84% 30.19 in 2.0 mi Calm Calm - N/A   Overcast
1:35 AM 5.7 °F - 1.8 °F 84% 30.20 in 1.8 mi Calm Calm - N/A   Overcast
1:55 AM 6.8 °F - 2.8 °F 84% 30.20 in 1.5 mi Calm Calm - N/A   Overcast
2:15 AM 6.8 °F - 3.0 °F 84% 30.20 in 2.0 mi Calm Calm - N/A   Overcast
2:35 AM 5.9 °F - 2.1 °F 84% 30.19 in 1.8 mi Calm Calm - N/A   Overcast
2:55 AM 6.8 °F - 2.8 °F 84% 30.19 in 2.0 mi Calm Calm - N/A   Overcast
3:15 AM 6.6 °F - 2.5 °F 83% 30.19 in 1.5 mi Calm Calm - N/A   Overcast
3:35 AM 6.6 °F - 2.7 °F 84% 30.19 in 1.5 mi Calm Calm - N/A   Overcast
3:55 AM 6.4 °F - 2.3 °F 83% 30.18 in 1.0 mi Calm Calm - N/A   Overcast
4:15 AM 5.5 °F - 1.8 °F 84% 30.18 in 1.0 mi Calm Calm - N/A   Overcast
4:35 AM 5.7 °F - 2.1 °F 85% 30.18 in 1.0 mi Calm Calm - N/A   Overcast
4:55 AM 6.3 °F - 2.3 °F 84% 30.18 in 1.2 mi Calm Calm - N/A   Overcast
5:15 AM 7.0 °F - 3.0 °F 84% 30.18 in 1.8 mi Calm Calm - N/A   Overcast
5:35 AM 5.9 °F - 2.1 °F 84% 30.19 in 1.0 mi Calm Calm - N/A   Overcast
5:55 AM 6.6 °F - 2.7 °F 84% 30.19 in 1.2 mi Calm Calm - N/A   Overcast
6:15 AM 7.3 °F - 3.2 °F 83% 30.19 in 1.5 mi Calm Calm - N/A   Overcast
6:35 AM 7.0 °F - 3.2 °F 84% 30.19 in 2.0 mi Calm Calm - N/A   Overcast
6:55 AM 6.4 °F - 2.7 °F 84% 30.20 in 2.0 mi Calm Calm - N/A   Overcast
7:15 AM 6.8 °F - 3.2 °F 85% 30.20 in 2.0 mi Calm Calm - N/A   Overcast
7:35 AM 7.2 °F - 3.2 °F 84% 30.20 in 1.0 mi Calm Calm - N/A   Overcast
7:55 AM 7.3 °F - 3.6 °F 85% 30.21 in 0.8 mi Calm Calm - N/A   Overcast
8:15 AM 7.5 °F - 3.7 °F 85% 30.21 in 1.0 mi Calm Calm - N/A   Overcast
8:35 AM 8.2 °F - 3.9 °F 83% 30.21 in 0.8 mi Calm Calm - N/A   Overcast
8:55 AM 9.1 °F - 4.5 °F 81% 30.21 in 0.8 mi Calm Calm - N/A   Overcast
9:15 AM 9.5 °F - 4.6 °F 81% 30.21 in 1.2 mi Calm Calm - N/A   Overcast
9:35 AM 9.7 °F - 4.6 °F 80% 30.22 in 1.0 mi Calm Calm - N/A   Overcast
9:55 AM 10.4 °F - 4.8 °F 78% 30.21 in 1.0 mi Calm Calm - N/A   Overcast
10:15 AM 10.9 °F - 5.0 °F 77% 30.21 in 1.0 mi Calm Calm - N/A   Overcast
10:35 AM 11.7 °F - 5.4 °F 76% 30.21 in 1.0 mi Calm Calm - N/A   Overcast
10:55 AM 12.2 °F - 5.5 °F 75% 30.21 in 1.0 mi Calm Calm - N/A   Overcast
11:15 AM 11.8 °F - 5.4 °F 75% 30.21 in 1.2 mi Calm Calm - N/A   Overcast
11:35 AM 13.5 °F - 5.7 °F 71% 30.21 in 5.0 mi Calm Calm - N/A   Overcast
11:55 AM 15.6 °F - 6.8 °F 68% 30.21 in 2.5 mi Calm Calm - N/A   Overcast
12:15 PM 15.1 °F - 6.4 °F 69% 30.20 in 5.0 mi Calm Calm - N/A   Scattered Clouds
12:35 PM 16.7 °F - 6.8 °F 65% 30.18 in 10.0 mi Calm Calm - N/A   Clear
12:55 PM 16.3 °F - 6.8 °F 66% 30.18 in 10.0 mi Calm Calm - N/A   Clear
1:15 PM 18.5 °F - 7.2 °F 61% 30.16 in 10.0 mi Calm Calm - N/A   Clear
1:35 PM 17.8 °F - 7.5 °F 64% 30.17 in 10.0 mi Calm Calm - N/A   Scattered Clouds
1:55 PM 21.2 °F 16.4 °F 7.5 °F 56% 30.17 in 10.0 mi South 3.5 mph - N/A   Mostly Cloudy
2:15 PM 17.8 °F - 7.7 °F 65% 30.18 in 7.0 mi Calm Calm - N/A   Overcast
2:35 PM 19.0 °F 13.9 °F 8.6 °F 64% 30.18 in 10.0 mi West 3.5 mph - N/A   Overcast
2:55 PM 19.6 °F - 8.1 °F 61% 30.19 in 10.0 mi Calm Calm - N/A   Mostly Cloudy
3:15 PM 18.5 °F - 7.7 °F 63% 30.19 in 10.0 mi Calm Calm - N/A   Clear
3:35 PM 19.0 °F - 8.4 °F 63% 30.19 in 10.0 mi Calm Calm - N/A   Clear
3:55 PM 17.6 °F - 8.2 °F 67% 30.20 in 10.0 mi Calm Calm - N/A   Clear
4:15 PM 16.2 °F 10.6 °F 6.8 °F 67% 30.21 in 10.0 mi South 3.5 mph - N/A   Clear
4:35 PM 13.8 °F 8.0 °F 6.1 °F 71% 30.22 in 10.0 mi SSW 3.5 mph - N/A   Clear
4:55 PM 12.6 °F - 6.6 °F 77% 30.22 in 10.0 mi Calm Calm - N/A   Clear
5:15 PM 11.1 °F - 6.1 °F 80% 30.22 in 10.0 mi Calm Calm - N/A   Clear
5:35 PM 11.7 °F - 6.4 °F 80% 30.23 in 10.0 mi Calm Calm - N/A   Mostly Cloudy
5:55 PM 11.5 °F - 6.1 °F 79% 30.23 in 10.0 mi Calm Calm - N/A   Mostly Cloudy
6:15 PM 11.1 °F - 5.9 °F 80% 30.23 in 10.0 mi Calm Calm - N/A   Clear
6:35 PM 10.4 °F - 6.4 °F 84% 30.23 in 10.0 mi Calm Calm - N/A   Clear
6:55 PM 8.4 °F - 4.1 °F 83% 30.23 in 10.0 mi Calm Calm - N/A   Clear
7:15 PM 6.6 °F -0.3 °F 2.5 °F 83% 30.24 in 10.0 mi South 3.5 mph - N/A   Scattered Clouds
7:35 PM 5.9 °F - 2.8 °F 87% 30.24 in 10.0 mi Calm Calm - N/A   Mostly Cloudy
7:55 PM 5.0 °F - 2.1 °F 88% 30.25 in 3.0 mi Calm Calm - N/A   Overcast
8:15 PM 5.2 °F - 1.8 °F 86% 30.26 in 2.5 mi Calm Calm - N/A   Overcast
8:35 PM 2.8 °F - -0.8 °F 85% 30.26 in 5.0 mi Calm Calm - N/A   Scattered Clouds
8:55 PM 1.0 °F - -2.7 °F 84% 30.27 in 7.0 mi Calm Calm - N/A   Clear
9:15 PM 0.9 °F - -2.2 °F 87% 30.28 in 5.0 mi Calm Calm - N/A   Clear
9:35 PM -0.6 °F - -4.0 °F 85% 30.28 in 10.0 mi Calm Calm - N/A   Scattered Clouds
9:55 PM 0.5 °F - -3.1 °F 85% 30.28 in 4.0 mi Calm Calm - N/A   Scattered Clouds
10:15 PM -0.2 °F - -4.0 °F 84% 30.29 in 10.0 mi Calm Calm - N/A   Clear
10:35 PM -1.3 °F - -5.8 °F 81% 30.30 in 7.0 mi Calm Calm - N/A   Scattered Clouds
10:55 PM -2.4 °F - -6.5 °F 82% 30.30 in 4.0 mi Calm Calm - N/A   Scattered Clouds
11:15 PM -4.0 °F - -8.9 °F 80% 30.30 in 4.0 mi Calm Calm - N/A   Clear
11:35 PM -4.4 °F - -9.0 °F 80% 30.31 in 2.5 mi Calm Calm - N/A   Mostly Cloudy
11:55 PM -3.6 °F - -8.0 °F 82% 30.32 in 5.0 mi Calm Calm - N/A   Overcast